Terminal Aerodrome Forecast
Issued by NWS

Home | Current Version | Previous Version | Text Only | Print | Product List | Glossary On
Versions: 1 2 3 4 5 6 7 8 9 10 11 12 13 14 15 16 17 18 19 20 21 22 23 24 25 26 27 28 29 30
000
FTUS46 KSGX 301120
TAFSAN
TAF
KSAN 301120Z 3012/3118 VRB03KT P6SM OVC008
     FM301530 VRB03KT P6SM SCT010
     FM301900 28009KT P6SM SKC
     FM310200 VRB05KT P6SM SCT009
     FM310500 VRB04KT P6SM OVC008
     FM311000 VRB03KT P6SM OVC012
     FM311600 VRB04KT P6SM SCT015=

USA.gov is the U.S. government's official web portal to all federal, state and local government web resources and services.